Zurück zum Katalog

STARLINK-3540

AktivKommunikationVLEO
NORAD 51719·PAYLOAD·🇺🇸 United States

Gestartet Feb 21, 2022 von Cape Canaveral Space Force Station

Loading…

Nächste Überflüge (nächste 24 Stunden)

TLE

AktuellSource: CelesTrak SupGP

Epoche: Sep 15, 2026, 01:30 UTC

1 51719C 22016F   26258.06298611 -.00033648  00000+0 -96314-3 0  2589
2 51719  53.1594 189.4780 0001455  78.8777 256.7617 15.35400562    14

Verfolge STARLINK-3540 in Echtzeit mit AllMySat

Download on the App Store